Regional Weather Roundup
Issued by NWS

Home | Current Version | Previous Version | Text Only | Print | Product List | Glossary Off
Versions: 1 2 3 4 5 6 7 8 9 10 11 12 13 14 15 16 17 18 19 20 21 22 23 24 25 26 27 28 29 30 31 32 33 34 35 36 37 38 39 40 41 42 43 44 45 46 47 48 49 50

000
ASUS43 KDTX 201101
RWRMI
MICHIGAN HOURLY REGIONAL WEATHER ROUNDUP
NATIONAL WEATHER SERVICE DETROIT/PONTIAC MI
600 AM EST SAT JAN 20 2018

NOTE: "FAIR" INDICATES FEW OR NO CLOUDS BELOW 12,000 FEET WITH NO
SIGNIFICANT WEATHER AND/OR OBSTRUCTION TO VISIBILITY.

MIZ047>049-052>055-059>063-066>070-074>076-081>083-201200-
SOUTHEAST LOWER MICHIGAN

CITY           SKY/WX    TMP DP  RH WIND       PRES   REMARKS
ADRIAN         FAIR      32  23  69 W9        29.87R WCI  24
ALMA           FAIR      37  30  77 SW10      29.78R WCI  29
ANN ARBOR      FAIR      32  24  72 S8        29.83R WCI  25
BAD AXE        FAIR      34  27  74 W15G22    29.73R WCI  25
CARO           FAIR      35  27  72 SW10      29.75R WCI  28
DETROIT CITY   FAIR      34  24  67 SW13      29.83R WCI  25
DETROIT        CLOUDY    34  25  69 SW13      29.85R WCI  25
FLINT          FAIR      34  24  67 SW10      29.79R WCI  26
GROSSE ILE     FAIR      34  25  70 SW10G17   29.85R WCI  26
HILLSDALE      FAIR      34  25  69 W13G20    29.83R WCI  25
HOWELL         FAIR      34  26  74 SW13      29.80R WCI  25

CITY           SKY/WX    TMP DP  RH WIND       PRES   REMARKS
JACKSON        FAIR      32  24  72 SW16      29.83R WCI  21
LAMBERTVILLE   FAIR      33  24  68 SW13G21   29.88R WCI  24
LANSING        FAIR      35  26  69 SW13      29.80R WCI  26
LAPEER         FAIR      35  25  67 W9        29.77R WCI  28
MONROE         FAIR      33  24  70 SW13      29.86R WCI  23
MT. CLEMENS    CLOUDY   N/A N/A N/A SW13        N/A
PONTIAC        FAIR      36  26  67 W13       29.78R WCI  27
PORT HOPE        N/A     36  27  69 SW10G22   29.69R WCI  28
PORT HURON     FAIR      34  23  64 SW6       29.79R WCI  29
TRI CITIES     FAIR      36  30  79 SW13      29.76R WCI  27
MIDLAND        FAIR      37  30  73 SW8       29.75R WCI  31
TROY           FAIR      33  25  70 SW8       29.82R WCI  27
SAGINAW HB     FAIR      34  28  80 SW9       29.76R WCI  26
$$
MIZ043>046-050>051-056>058-064>065-071>073-077>080-201200-
SOUTHWEST LOWER MICHIGAN

CITY           SKY/WX    TMP DP  RH WIND       PRES   REMARKS
BATTLE CREEK   FAIR      32  25  75 SW12      29.83R WCI  23
BENTON HARBOR  FAIR      38  27  64 SW17G24   29.85R WCI  28
BIG RAPIDS     FAIR      36  28  73 W7        29.74R WCI  30
COLDWATER      FAIR      32  25  76 SW10      29.85R WCI  24
HOLLAND        FAIR      37  30  75 SW14      29.82R WCI  28
GRAND RAPIDS   MOCLDY    36  28  73 SW14      29.81R WCI  27
IONIA          FAIR      36  28  73 W15       29.79R WCI  27
KALAMAZOO      FAIR      34  25  69 SW9       29.85R WCI  27
LUDINGTON      FAIR      36  32  86 SW6       29.76R WCI  31
MARSHALL       FAIR      32  24  72 SW9G16    29.83R WCI  24
MOUNT PLEASANT FAIR      38  29  71 W10G18    29.75R WCI  31
MUSKEGON       MOCLDY    38  31  76 SW9       29.80R WCI  31
SOUTH HAVEN    FAIR      37  29  72 SW13      29.83R WCI  29
$$
MIZ016>042-201200-
NORTHERN LOWER MICHIGAN

CITY           SKY/WX    TMP DP  RH WIND       PRES   REMARKS
ALPENA         FAIR      38  30  73 W7        29.66R WCI  33
BEAVER ISLAND  FAIR      34  31  90 SW7       29.69R WCI  27
CADILLAC       FAIR      34  29  83 W8        29.71R WCI  27
CHARLEVOIX     FAIR      37  32  82 W12       29.73R WCI  29
FRANKFORT      FAIR      37  33  87 CALM      29.73R
GAYLORD        FAIR      34  30  85 W8        29.67R WCI  27
GRAYLING       FAIR      35  28  75 W10G17    29.69R WCI  27
HARBOR SPRINGS FAIR      34  32  92 W7        29.69R WCI  28
HOUGHTON LAKE  FAIR      34  27  75 W8        29.70R WCI  27
MANISTEE       FAIR      35  31  85 W3        29.75R
OSCODA         FAIR      33  26  75 SW6       29.68R WCI  28
PELLSTON       FAIR      37  29  72 W12       29.67R WCI  29
ROGERS CITY    FAIR      38  30  73 W10G17    29.65R WCI  30
TRAVERSE CITY  FAIR      39  30  70 SW6       29.72R WCI  35
$$
MIZ007>008-015-201200-
EASTERN UPPER MICHIGAN

CITY           SKY/WX    TMP DP  RH WIND       PRES   REMARKS
KINROSS        CLOUDY    35  29  78 W9        29.63R WCI  28
MACKINAC ISLAN FAIR      34  29  82 W14G21    29.64R WCI  24
NEWBERRY       FAIR      32  30  93 W9        29.64R WCI  24
S. S. MARIE    CLOUDY    40  31  70 W12       29.61R WCI  33
MUNISING         N/A     38  31  76 MISG      29.66R
$$
MIZ004>006-011>014-085-201200-
CENTRAL UPPER MICHIGAN

CITY           SKY/WX    TMP DP  RH WIND       PRES   REMARKS
ESCANABA       FAIR      26  24  92 CALM      29.71R
MENOMINEE      FAIR      31  27  85 CALM      29.73R
SAWYER-GWINN   CLOUDY    32  27  83 SW6       29.67R WCI  26
$$
MIZ001>003-009>011-084-201200-
WESTERN UPPER MICHIGAN

CITY           SKY/WX    TMP DP  RH WIND       PRES   REMARKS
IRON MOUNTAIN  FAIR      32  26  78 NW7       29.68R WCI  26
HOUGHTON       FAIR      36  29  75 W18       29.64R WCI  26
COPPER HARBOR    N/A     37  30  75 N17G30    29.62R WCI  27
$$

ABBREVIATIONS USED IN REMARKS
   TC - TEMPERATURE IN CELSIUS
  WCI - WIND CHILL INDEX
   HX - HEAT INDEX
  VSB - VISIBILITY





USA.gov is the U.S. government's official web portal to all federal, state and local government web resources and services.